DW8463 Weather Reports


time (UTC)temp
F
wind
direction
speed
knots
gust
knots
rain 1hr
in
rain 24hr
in
rain mn
in
humidity
%
barometer
mb
20260903233303 82 159 4.3 8.7 0.00 0.02 0.02 76 1006.8
20260903231303 83 154 2.6 7.0 0.00 0.02 0.02 76 1006.8
20260903230303 83 137 5.2 11.3 0.00 0.02 0.02 76 1006.8
20260903225803 83 151 2.6 10.4 0.00 0.02 0.02 75 1006.7
20260903225306 84 145 3.5 8.7 0.00 0.02 0.02 75 1006.6
20260903224303 84 140 6.1 13.0 0.00 0.02 0.02 75 1006.6
20260903223803 84 147 5.2 13.0 0.00 0.02 0.02 75 1006.7
20260903223304 84 164 1.7 7.0 0.00 0.02 0.02 75 1006.7
20260903222803 84 141 3.5 8.7 0.00 0.02 0.02 75 1006.8
20260903222305 84 123 4.3 7.0 0.00 0.02 0.02 75 1006.8
20260903221804 84 152 2.6 10.4 0.00 0.02 0.02 75 1007.1
20260903221303 85 150 4.3 8.7 0.00 0.02 0.02 75 1007.1
20260903220803 84 151 3.5 10.4 0.00 0.02 0.02 75 1007.1
20260903220303 83 159 5.2 10.4 0.00 0.02 0.02 75 1007.2
20260903215803 84 167 4.3 10.4 0.00 0.02 0.02 72 1007.1
20260903215306 84 164 4.3 12.2 0.00 0.02 0.02 72 1007.1
20260903214803 84 111 7.0 12.2 0.00 0.02 0.02 72 1007.0
20260903214303 85 142 4.3 10.4 0.00 0.02 0.02 72 1007.0
20260903213803 85 156 5.2 10.4 0.00 0.02 0.02 72 1007.0
20260903213303 85 144 6.1 11.3 0.00 0.02 0.02 72 1007.0
20260903211803 86 156 5.2 10.4 0.00 0.02 0.02 72 1006.9
20260903210803 86 173 5.2 11.3 0.00 0.02 0.02 72 1007.2
20260903210303 85 166 5.2 12.2 0.00 0.02 0.02 72 1007.1
20260903205803 86 162 6.1 11.3 0.00 0.02 0.02 72 1007.2
20260903205306 85 147 3.5 10.4 0.00 0.02 0.02 72 1007.3
20260903204303 86 154 4.3 12.2 0.00 0.02 0.02 72 1007.2
20260903203803 86 168 4.3 10.4 0.00 0.02 0.02 72 1007.2
20260903202803 85 126 5.2 10.4 0.00 0.02 0.02 72 1007.2
20260903202306 85 147 5.2 13.0 0.00 0.02 0.02 72 1007.1
20260903201803 85 126 6.1 14.8 0.00 0.02 0.02 72 1007.3
20260903201303 85 154 5.2 10.4 0.00 0.02 0.02 72 1007.5
20260903200803 85 148 4.3 17.4 0.00 0.02 0.02 72 1007.7
20260903195803 86 144 4.3 12.2 0.00 0.02 0.02 67 1007.5
20260903194803 85 128 2.6 7.0 0.00 0.02 0.02 67 1007.7
20260903194303 83 113 4.3 10.4 0.00 0.02 0.02 67 1007.8
20260903193803 84 163 6.1 11.3 0.00 0.02 0.02 67 1007.7
20260903193303 84 124 5.2 12.2 0.00 0.02 0.02 67 1007.6
20260903192804 84 127 7.8 13.0 0.00 0.02 0.02 67 1007.6
20260903192306 84 126 5.2 10.4 0.00 0.02 0.02 67 1007.7
20260903191803 84 137 6.1 11.3 0.00 0.02 0.02 67 1007.9
20260903191303 85 118 6.1 13.9 0.00 0.02 0.02 67 1008.0
20260903190803 84 156 5.2 10.4 0.00 0.02 0.02 67 1007.9
20260903190303 85 149 7.0 11.3 0.00 0.02 0.02 67 1007.9
20260903185803 85 162 4.3 10.4 0.00 0.02 0.02 71 1008.0
20260903185306 85 130 4.3 12.2 0.00 0.02 0.02 71 1008.0
20260903184803 84 115 4.3 8.7 0.00 0.02 0.02 71 1008.1
20260903184303 83 151 6.1 11.3 0.00 0.02 0.02 71 1008.2
20260903183803 83 126 5.2 10.4 0.00 0.02 0.02 71 1008.4
20260903183303 83 122 4.3 11.3 0.00 0.02 0.02 71 1008.6
20260903182803 84 144 4.3 12.2 0.00 0.02 0.02 71 1008.7
20260903182306 84 138 5.2 13.9 0.00 0.02 0.02 71 1008.6
20260903181803 84 138 7.0 10.4 0.00 0.02 0.02 71 1008.8
20260903181304 83 136 2.6 10.4 0.00 0.02 0.02 71 1008.8
20260903180804 83 149 2.6 7.0 0.00 0.02 0.02 71 1008.7
20260903180303 84 155 5.2 11.3 0.00 0.02 0.02 71 1008.7
20260903175804 84 172 5.2 8.7 0.00 0.02 0.02 70 1008.6
20260903175306 84 182 2.6 7.8 0.00 0.02 0.02 70 1008.5
20260903174803 85 163 5.2 7.8 0.00 0.02 0.02 70 1008.5
20260903174303 85 172 2.6 7.8 0.00 0.02 0.02 70 1008.6
20260903173303 85 121 4.3 8.7 0.00 0.02 0.02 70 1008.6
20260903172803 84 167 1.7 7.0 0.00 0.02 0.02 70 1008.6
20260903172306 83 117 3.5 8.7 0.00 0.02 0.02 70 1008.5
20260903171803 83 102 2.6 7.0 0.00 0.02 0.02 70 1008.5
20260903171304 84 119 3.5 7.0 0.00 0.02 0.02 70 1008.4
20260903170803 84 128 2.6 6.1 0.00 0.02 0.02 70 1008.4
20260903170303 83 118 2.6 7.0 0.00 0.02 0.02 73 1008.5
20260903165803 82 146 0.9 4.3 0.00 0.02 0.02 84 1008.5
20260903165305 81 134 1.7 2.6 0.00 0.02 0.02 84 1008.7
20260903164803 81 163 2.6 4.3 0.00 0.02 0.02 84 1008.7
20260903164304 81 132 0.9 2.6 0.00 0.02 0.02 84 1008.6
20260903163804 81 123 0.0 4.3 0.00 0.02 0.02 84 1008.6
20260903163303 82 95 0.0 1.7 0.00 0.02 0.02 84 1008.5
20260903162804 81 123 0.9 2.6 0.00 0.02 0.02 84 1008.6
20260903162306 80 135 0.9 2.6 0.00 0.02 0.02 84 1008.5
20260903161803 79 140 0.9 7.8 0.00 0.02 0.02 84 1008.5
20260903161303 79 161 4.3 7.8 0.00 0.02 0.02 84 1008.4
20260903160803 80 154 2.6 7.0 0.00 0.02 0.02 84 1008.4
20260903160303 79 113 1.7 5.2 0.00 0.02 0.02 87 1008.5
20260903155803 79 169 0.9 4.3 0.00 0.02 0.02 98 1008.4
20260903155306 78 122 1.7 7.0 0.00 0.02 0.02 98 1008.4
20260903154803 77 138 1.7 8.7 0.00 0.02 0.02 98 1008.5
20260903154303 76 176 0.0 4.3 0.00 0.02 0.02 98 1008.5
20260903153803 76 142 2.6 6.1 0.00 0.02 0.02 98 1008.8
20260903153303 76 176 1.7 6.1 0.00 0.02 0.02 98 1008.9
20260903152306 76 91 2.6 5.2 0.00 0.02 0.02 98 1008.7
20260903151804 76 163 1.7 6.1 0.00 0.02 0.02 98 1008.6
20260903151303 76 144 4.3 7.8 0.00 0.02 0.02 98 1008.5
20260903150303 75 112 1.7 7.0 0.00 0.02 0.02 98 1008.4
20260903145803 75 92 0.9 6.1 0.00 0.02 0.02 100 1008.6
20260903145306 74 81 4.3 7.8 0.00 0.02 0.02 100 1008.6
20260903144303 73 96 1.7 7.8 0.00 0.02 0.02 100 1008.8
20260903143803 72 132 2.6 7.8 0.00 0.02 0.02 100 1008.9
20260903143303 73 189 2.6 7.0 0.00 0.02 0.02 100 1009.1
20260903142803 73 151 1.7 5.2 0.00 0.02 0.02 100 1008.9
20260903142306 73 207 0.9 7.0 0.00 0.02 0.02 100 1008.8
20260903141803 72 151 2.6 5.2 0.00 0.02 0.02 100 1008.6
20260903141303 72 219 2.6 7.0 0.00 0.02 0.02 100 1008.5
20260903140803 72 82 1.7 7.0 0.00 0.02 0.02 100 1008.3
20260903140303 72 0 1.7 5.2 0.00 0.02 0.02 100 1008.2
20260903135803 72 0 0.9 5.2 0.00 0.02 0.02 99 1008.4
20260903135306 71 0 0.9 5.2 0.01 0.02 0.02 99 1008.5
20260903134803 71 0 1.7 7.8 0.01 0.02 0.02 99 1008.5
20260903134303 71 202 2.6 7.0 0.01 0.02 0.02 99 1008.5
20260903132803 71 229 1.7 5.2 0.01 0.02 0.02 99 1009.1
20260903132306 71 195 2.6 4.3 0.01 0.02 0.02 99 1009.1
20260903131804 71 208 2.6 4.3 0.01 0.02 0.02 99 1009.3
20260903131304 71 202 1.7 2.6 0.01 0.02 0.02 99 1009.5
20260903130803 70 154 2.6 5.2 0.01 0.02 0.02 99 1009.9
20260903130303 70 151 2.6 5.2 0.02 0.02 0.02 99 1009.8
20260903125305 70 307 0.0 0.0 0.01 0.01 0.01 95 1009.6
20260903124804 71 306 0.0 0.9 0.01 0.01 0.01 95 1009.9
20260903124303 71 306 0.0 0.9 0.01 0.01 0.01 95 1009.9
20260903123303 71 305 0.9 2.6 0.01 0.01 0.01 95 1010.2
20260903122305 71 250 1.7 7.0 0.01 0.01 0.01 95 1009.6
20260903121803 71 255 1.7 7.0 0.01 0.01 0.01 95 1009.6
20260903121303 71 247 2.6 6.1 0.01 0.01 0.01 95 1009.5
20260903120303 71 295 1.7 10.4 0.00 0.00 0.00 95 1009.9
20260903115803 71 236 0.9 7.8 0.00 0.01 0.00 93 1009.8
20260903115305 71 217 1.7 8.7 0.00 0.01 0.00 93 1009.7
20260903114803 71 214 2.6 7.8 0.00 0.01 0.00 93 1009.6
20260903114303 71 252 0.9 6.1 0.00 0.01 0.00 93 1009.8
20260903113803 71 270 0.9 7.0 0.00 0.01 0.00 93 1009.8
20260903112803 71 218 0.9 5.2 0.00 0.01 0.00 93 1009.1
20260903112305 71 236 1.7 7.0 0.00 0.01 0.00 93 1009.1
20260903111803 71 222 2.6 8.7 0.00 0.01 0.00 93 1009.0
20260903111304 71 246 1.7 10.4 0.00 0.01 0.00 93 1009.2
20260903110803 71 227 1.7 4.3 0.00 0.01 0.00 93 1009.3
20260903110303 72 248 1.7 7.0 0.00 0.01 0.00 93 1009.4
20260903105804 71 245 2.6 10.4 0.00 0.01 0.00 95 1009.4
20260903105306 71 238 1.7 6.1 0.00 0.01 0.00 95 1009.6
20260903104303 72 252 1.7 5.2 0.00 0.01 0.00 95 1009.4
20260903103804 72 311 0.9 1.7 0.00 0.01 0.00 95 1009.6
20260903103303 73 311 1.7 6.1 0.00 0.01 0.00 95 1009.7
20260903102804 72 325 0.9 2.6 0.00 0.01 0.00 95 1009.8
20260903102305 72 306 1.7 6.1 0.00 0.01 0.00 95 1009.7
20260903101803 72 265 2.6 8.7 0.00 0.02 0.00 95 1009.8
20260903101303 72 298 2.6 7.0 0.00 0.02 0.00 95 1009.4
20260903100803 72 250 5.2 14.8 0.00 0.02 0.00 95 1008.8
20260903100303 72 217 2.6 13.0 0.00 0.02 0.00 95 1008.8
20260903095804 71 188 5.2 20.9 0.00 0.02 0.00 100 1009.2
20260903095305 70 191 4.3 15.6 0.00 0.02 0.00 100 1009.6
20260903094803 70 135 0.0 0.9 0.00 0.02 0.00 100 1009.4
20260903094306 70 134 0.0 0.9 0.00 0.02 0.00 100 1009.0
20260903093803 70 141 0.0 0.9 0.00 0.02 0.00 100 1008.7
20260903093303 70 141 0.0 0.0 0.00 0.02 0.00 100 1008.8
20260903092803 70 169 0.0 0.0 0.00 0.02 0.00 100 1009.0
20260903092306 70 190 0.0 0.0 0.00 0.02 0.00 100 1008.7
20260903091303 70 186 0.0 1.7 0.00 0.02 0.00 100 1008.3
20260903090803 70 180 0.9 1.7 0.00 0.02 0.00 100 1008.1
20260903090304 70 187 0.0 0.9 0.00 0.02 0.00 100 1008.5
20260903085803 70 182 0.0 0.9 0.00 0.02 0.00 100 1008.4
20260903084803 70 175 0.0 0.9 0.00 0.02 0.00 100 1008.5
20260903084303 70 188 0.0 0.9 0.00 0.02 0.00 100 1008.5
20260903082803 70 186 0.0 0.9 0.00 0.02 0.00 100 1008.4
20260903082306 70 193 0.0 0.0 0.00 0.02 0.00 100 1008.5
20260903081803 70 186 0.0 0.0 0.00 0.02 0.00 100 1008.4
20260903081303 70 186 0.0 0.0 0.00 0.02 0.00 100 1008.4
20260903080803 70 184 0.0 0.9 0.00 0.02 0.00 100 1008.4
20260903080303 70 189 0.0 0.0 0.00 0.02 0.00 100 1008.4
20260903075803 70 184 0.0 0.0 0.00 0.02 0.00 100 1008.4
20260903075306 70 180 0.0 0.0 0.00 0.02 0.00 100 1008.4
20260903074803 70 187 0.0 0.0 0.00 0.02 0.00 100 1008.4
20260903074303 69 184 0.0 0.0 0.00 0.03 0.00 100 1008.5
20260903073804 69 184 0.0 0.0 0.00 0.03 0.00 100 1008.4
20260903073303 69 187 0.0 0.0 0.00 0.03 0.00 100 1008.6
20260903072804 70 182 0.0 0.0 0.00 0.04 0.00 100 1008.7
20260903072306 70 187 0.0 0.0 0.00 0.06 0.00 100 1008.7
20260903071303 70 173 0.0 0.0 0.00 0.06 0.00 100 1008.6
20260903070803 70 171 0.0 0.0 0.00 0.07 0.00 100 1008.7
20260903070303 70 168 0.0 0.0 0.00 0.07 0.00 100 1008.7
20260903065803 70 173 0.0 0.0 0.00 0.08 0.00 100 1008.7
20260903065305 70 172 0.0 0.0 0.00 0.10 0.00 100 1008.8
20260903064803 70 173 0.0 0.0 0.00 0.14 0.00 100 1008.8
20260903064303 70 168 0.0 0.0 0.00 0.18 0.00 100 1008.8
20260903063804 70 167 0.0 0.0 0.00 0.28 0.00 100 1008.8
20260903062803 71 167 0.0 0.0 0.00 0.59 0.00 100 1008.8
20260903062306 71 174 0.0 0.0 0.00 0.67 0.00 100 1008.9
20260903061303 71 171 0.0 0.0 0.00 0.72 0.00 100 1008.8
20260903060803 71 173 0.0 0.0 0.00 0.72 0.00 100 1008.9
20260903055803 70 169 0.0 0.0 0.00 0.74 0.00 100 1008.9
20260903055306 71 167 0.0 0.0 0.00 0.86 0.00 100 1008.9
20260903054303 71 175 0.0 0.0 0.00 0.89 0.00 100 1009.0
20260903052306 71 173 0.0 0.0 0.00 0.89 0.00 100 1009.1
20260903051803 71 167 0.0 0.0 0.00 0.89 0.00 100 1009.2
20260903050303 71 173 0.0 0.0 0.00 0.91 0.00 100 1009.2
20260903045803 71 0 0.0 0.0 0.00 0.91 0.91 100 1009.2
20260903045306 71 0 0.0 0.0 0.00 0.92 0.91 100 1009.1
20260903044803 71 0 0.0 0.0 0.00 0.92 0.91 100 1009.1
20260903044303 71 0 0.0 0.0 0.00 0.92 0.91 100 1009.1
20260903042803 71 0 0.0 0.0 0.00 0.92 0.91 100 1009.1
20260903042306 71 342 0.0 0.0 0.00 0.92 0.91 100 1009.1
20260903041303 71 306 0.0 0.0 0.00 0.92 0.91 100 1009.1
20260903040804 71 342 0.0 0.0 0.00 0.92 0.91 100 1009.1
20260903040304 71 220 0.0 0.0 0.00 0.92 0.91 100 1009.2
20260903035803 72 204 0.0 0.0 0.00 0.92 0.91 100 1009.2
20260903035306 72 206 0.0 0.0 0.00 0.92 0.91 100 1009.2
20260903034804 72 189 0.0 0.0 0.00 0.92 0.91 100 1009.3
20260903034303 72 186 0.0 0.0 0.00 0.92 0.91 100 1009.3
20260903033803 72 184 0.0 0.0 0.00 0.92 0.91 100 1009.4
20260903033303 72 182 0.0 0.0 0.00 0.92 0.91 100 1009.4
20260903032803 72 186 0.0 0.0 0.00 0.92 0.91 100 1009.4
20260903032305 72 184 0.0 0.0 0.00 0.92 0.91 100 1009.4
20260903031303 73 183 0.0 0.0 0.00 0.92 0.91 100 1009.5
20260903030803 73 172 0.0 0.0 0.00 0.92 0.91 100 1009.5
20260903025804 73 174 0.0 0.0 0.00 0.92 0.91 100 1009.5
20260903025306 74 177 0.0 0.0 0.00 0.92 0.91 100 1009.4
20260903024804 74 177 0.0 0.0 0.00 0.92 0.91 100 1009.4
20260903024303 74 176 0.0 0.0 0.00 0.92 0.91 100 1009.5
20260903023304 74 181 0.0 0.0 0.00 0.92 0.91 100 1009.5
20260903022803 74 175 0.0 0.0 0.00 0.92 0.91 100 1009.5
20260903022306 75 171 0.0 0.0 0.00 0.92 0.91 100 1009.5
20260903021803 75 168 0.0 0.0 0.00 0.92 0.91 100 1009.3
20260903021303 75 187 0.0 0.0 0.00 0.92 0.91 100 1009.3
20260903020803 75 182 0.0 0.0 0.00 0.92 0.91 100 1009.3
20260903015803 76 137 0.0 0.0 0.00 0.92 0.91 97 1009.2
20260903015306 76 102 0.0 0.0 0.00 0.92 0.91 97 1009.1
20260903014803 76 102 0.0 0.0 0.00 0.92 0.91 97 1009.1
20260903013803 77 101 0.0 0.0 0.00 0.92 0.91 97 1008.9
20260903012803 77 101 0.0 0.0 0.00 0.92 0.91 97 1008.8
20260903012306 78 101 0.0 0.0 0.00 0.92 0.91 97 1008.8
20260903011804 78 101 0.0 0.0 0.00 0.92 0.91 97 1008.8
20260903011303 78 101 0.0 0.0 0.00 0.92 0.91 97 1008.7
20260903010804 78 101 0.0 0.0 0.00 0.92 0.91 97 1008.6
20260903010303 79 101 0.0 0.0 0.00 0.92 0.91 93 1008.6
20260903005804 79 101 0.0 0.0 0.00 0.92 0.91 75 1008.6
20260903004303 80 101 0.0 0.0 0.00 0.92 0.91 75 1008.7
20260903003804 80 101 0.0 0.0 0.00 0.92 0.91 75 1008.7
20260903003303 81 101 0.0 0.0 0.00 0.92 0.91 75 1008.6
20260903002804 82 101 0.0 0.0 0.00 0.92 0.91 75 1008.6
20260903002306 83 101 0.9 1.7 0.00 0.92 0.91 75 1008.6
20260903001303 83 101 0.0 1.7 0.00 0.92 0.91 75 1008.6
20260903000804 84 101 0.0 0.9 0.00 0.92 0.91 75 1008.6
20260903000303 84 82 0.0 2.6 0.00 0.92 0.91 75 1008.6
20260902235803 84 52 1.7 4.3 0.00 0.92 0.91 70 1008.6
20260902235305 84 56 0.9 2.6 0.00 0.92 0.91 70 1008.6
20260902234804 85 76 2.6 6.1 0.00 0.92 0.91 70 1008.6
20260902234303 85 76 0.9 2.6 0.00 0.92 0.91 70 1008.6
20260902233803 85 91 1.7 2.6 0.00 0.92 0.91 70 1008.6